This is the latest recevied weather packets stored in our database for station/object KC5DAQ-27. If no packets are shown the sender has not sent any weather packets the latest 10 day(s).
| Time | Temp. | Humidity | Pressure | Rain* | Wind** | Luminosity | Snow |
|---|---|---|---|---|---|---|---|
| 1787958524 | 24.44° C | 92% | 1007.8 hPa | 2.54 mm | - | 9 W/m² | - |
| 1787958462 | 24.44° C | 93% | 1007.9 hPa | 2.79 mm | - | 9 W/m² | - |
| 1787958401 | 24.44° C | 93% | 1007.9 hPa | 2.79 mm | - | 9 W/m² | - |
| 1787958340 | 24.44° C | 93% | 1008.1 hPa | 2.79 mm | - | 9 W/m² | - |
| 1787958276 | 24.44° C | 92% | 1008.3 hPa | 2.79 mm | - | 9 W/m² | - |
| 1787958216 | 24.44° C | 92% | 1008.4 hPa | 3.05 mm | - | 9 W/m² | - |
| 1787958155 | 24.44° C | 92% | 1008.4 hPa | 3.05 mm | - | 9 W/m² | - |
| 1787958091 | 24.44° C | 92% | 1008.4 hPa | 3.05 mm | - | 9 W/m² | - |
| 1787958032 | 24.44° C | 92% | 1008.4 hPa | 3.05 mm | - | 9 W/m² | - |
| 1787957972 | 24.44° C | 92% | 1008.4 hPa | 3.05 mm | - | 9 W/m² | - |
| 1787957910 | 24.44° C | 92% | 1008.4 hPa | 3.05 mm | - | 7 W/m² | - |
| 1787957852 | 24.44° C | 92% | 1008.5 hPa | 3.05 mm | - | 7 W/m² | - |
| 1787957791 | 24.44° C | 92% | 1008.5 hPa | 3.3 mm | - | 7 W/m² | - |
| 1787957731 | 24.44° C | 92% | 1008.5 hPa | 3.3 mm | - | 7 W/m² | - |
| 1787957671 | 24.44° C | 92% | 1008.4 hPa | 3.56 mm | - | 7 W/m² | - |
| 1787957612 | 24.44° C | 92% | 1008.5 hPa | 3.3 mm | - | 7 W/m² | - |
| 1787957551 | 25° C | 92% | 1008.3 hPa | 3.3 mm | - | 7 W/m² | - |
| 1787957492 | 24.44° C | 92% | 1008.2 hPa | 3.56 mm | - | 7 W/m² | - |
| 1787957432 | 25° C | 92% | 1008.2 hPa | 3.56 mm | - | 7 W/m² | - |
| 1787957371 | 25° C | 92% | 1008.3 hPa | 3.81 mm | - | 7 W/m² | - |
| 1787957311 | 25° C | 92% | 1008.2 hPa | 3.81 mm | - | 7 W/m² | - |
| 1787957252 | 25° C | 92% | 1008.2 hPa | 4.06 mm | - | 7 W/m² | - |
| 1787957192 | 25° C | 92% | 1008.3 hPa | 3.81 mm | - | 7 W/m² | - |
| 1787957131 | 25° C | 92% | 1008.4 hPa | 4.06 mm | - | 5 W/m² | - |
| 1787957071 | 25° C | 92% | 1008.4 hPa | 4.32 mm | - | 5 W/m² | - |
* Rain latest hour (hover to see other rain measurements)
** Current wind speed in m/s (hover to see current wind gust speed)